This is the latest recevied weather packets stored in our database for station/object N9ALD. If no packets are shown the sender has not sent any weather packets the latest 10 day(s).
| Time | Temp. | Humidity | Pressure | Rain* | Wind** | Luminosity | Snow |
|---|---|---|---|---|---|---|---|
| 1776912285 | 17.22° C | 69% | 1012.1 hPa | 0 mm | - | 0 W/m² | - |
| 1776911982 | 17.78° C | 68% | 1012.2 hPa | 0 mm | - | 0 W/m² | - |
| 1776911678 | 17.78° C | 67% | 1012.1 hPa | 0 mm | - | 0 W/m² | - |
| 1776911375 | 17.78° C | 66% | 1012.1 hPa | 0 mm | - | 0 W/m² | - |
| 1776911072 | 18.33° C | 66% | 1012.2 hPa | 0 mm | - | 0 W/m² | - |
| 1776910767 | 17.78° C | 66% | 1012.1 hPa | 0 mm | - | 0 W/m² | - |
| 1776910463 | 17.78° C | 66% | 1012.1 hPa | 0 mm | - | 0 W/m² | - |
| 1776910160 | 17.78° C | 66% | 1012 hPa | 0 mm | - | 0 W/m² | - |
| 1776909857 | 18.33° C | 65% | 1012.1 hPa | 0 mm | - | 0 W/m² | - |
| 1776909555 | 18.33° C | 64% | 1011.8 hPa | 0 mm | - | 0 W/m² | - |
| 1776909251 | 18.89° C | 63% | 1012 hPa | 0 mm | - | 0 W/m² | - |
| 1776908949 | 18.89° C | 62% | 1012.1 hPa | 0 mm | - | 0 W/m² | - |
| 1776908647 | 19.44° C | 61% | 1011.9 hPa | 0 mm | - | 0 W/m² | - |
| 1776908343 | 19.44° C | 60% | 1011.8 hPa | 0 mm | - | 0 W/m² | - |
| 1776908040 | 20° C | 60% | 1011.9 hPa | 0 mm | - | 0 W/m² | - |
| 1776907736 | 20° C | 59% | 1011.7 hPa | 0 mm | - | 0 W/m² | - |
| 1776907433 | 20° C | 58% | 1011.7 hPa | 0 mm | - | 0 W/m² | - |
| 1776907130 | 20.56° C | 58% | 1011.7 hPa | 0 mm | - | 0 W/m² | - |
| 1776906827 | 20.56° C | 57% | 1011.7 hPa | 0 mm | - | 0 W/m² | - |
| 1776906524 | 20.56° C | 56% | 1011.7 hPa | 0 mm | - | 0 W/m² | - |
| 1776906221 | 21.11° C | 56% | 1011.5 hPa | 0 mm | - | 0 W/m² | - |
| 1776905918 | 21.11° C | 55% | 1011.4 hPa | 0 mm | - | 0 W/m² | - |
| 1776905613 | 21.67° C | 54% | 1011.4 hPa | 0 mm | - | 0 W/m² | - |
| 1776905309 | 21.67° C | 53% | 1011.5 hPa | 0 mm | - | 0 W/m² | - |
| 1776905006 | 21.67° C | 53% | 1011.4 hPa | 0 mm | - | 1 W/m² | - |
* Rain latest hour (hover to see other rain measurements)
** Current wind speed in m/s (hover to see current wind gust speed)